TimeCDT,TemperatureF,Dew PointF,Humidity,Sea Level PressureIn,VisibilityMPH,Wind Direction,Wind SpeedMPH,Gust SpeedMPH,PrecipitationIn,Events,Conditions,WindDirDegrees,DateUTC
12:15 AM,32.0,27.1,82,29.96,10.0,WNW,4.6,-,N/A,,Clear,290,2013-10-23 05:15:00
12:35 AM,32.0,27.3,83,29.96,10.0,WNW,5.8,-,N/A,,Clear,300,2013-10-23 05:35:00
12:55 AM,31.8,27.1,83,29.96,10.0,WNW,5.8,-,N/A,,Clear,300,2013-10-23 05:55:00
1:15 AM,31.6,27.3,84,29.96,10.0,WNW,5.8,-,N/A,,Mostly Cloudy,300,2013-10-23 06:15:00
1:35 AM,31.8,27.3,83,29.97,10.0,WNW,5.8,-,N/A,,Overcast,290,2013-10-23 06:35:00
1:55 AM,32.0,27.5,83,29.97,10.0,WNW,3.5,-,N/A,,Overcast,300,2013-10-23 06:55:00
2:15 AM,32.0,27.5,83,29.96,10.0,Calm,Calm,-,N/A,,Overcast,0,2013-10-23 07:15:00
2:35 AM,31.6,27.5,85,29.96,10.0,Calm,Calm,-,N/A,,Mostly Cloudy,0,2013-10-23 07:35:00
2:55 AM,30.6,27.1,87,29.96,10.0,Calm,Calm,-,N/A,,Scattered Clouds,0,2013-10-23 07:55:00
3:15 AM,30.9,27.1,86,29.95,10.0,WNW,3.5,-,N/A,,Clear,300,2013-10-23 08:15:00
3:35 AM,30.9,27.0,85,29.95,10.0,NW,3.5,-,N/A,,Scattered Clouds,320,2013-10-23 08:35:00
3:55 AM,30.7,26.8,85,29.95,10.0,WNW,3.5,-,N/A,,Scattered Clouds,290,2013-10-23 08:55:00
4:15 AM,28.6,25.0,86,29.95,10.0,WNW,3.5,-,N/A,,Scattered Clouds,290,2013-10-23 09:15:00
4:35 AM,29.8,26.8,88,29.96,10.0,Calm,Calm,-,N/A,,Clear,0,2013-10-23 09:35:00
4:55 AM,28.4,26.1,91,29.96,10.0,WNW,3.5,-,N/A,,Clear,290,2013-10-23 09:55:00
5:15 AM,28.6,26.4,92,29.97,10.0,WNW,3.5,-,N/A,,Clear,300,2013-10-23 10:15:00
5:35 AM,28.9,26.8,92,29.97,10.0,WNW,4.6,-,N/A,,Scattered Clouds,300,2013-10-23 10:35:00
5:55 AM,29.1,27.1,92,29.97,10.0,Calm,Calm,-,N/A,,Mostly Cloudy,0,2013-10-23 10:55:00
6:15 AM,29.1,27.0,92,29.97,10.0,WNW,4.6,-,N/A,,Overcast,290,2013-10-23 11:15:00
6:35 AM,29.1,27.0,92,29.97,10.0,WNW,3.5,-,N/A,,Scattered Clouds,290,2013-10-23 11:35:00
6:55 AM,28.2,26.1,92,29.98,10.0,Calm,Calm,-,N/A,,Clear,0,2013-10-23 11:55:00
7:15 AM,28.2,26.4,93,29.98,10.0,Calm,Calm,-,N/A,,Clear,0,2013-10-23 12:15:00
7:35 AM,27.5,25.7,93,29.98,10.0,West,5.8,-,N/A,,Mostly Cloudy,270,2013-10-23 12:35:00
7:55 AM,30.0,28.4,94,29.99,10.0,West,4.6,-,N/A,,Overcast,270,2013-10-23 12:55:00
8:15 AM,32.0,29.3,90,29.99,10.0,WNW,6.9,-,N/A,,Overcast,290,2013-10-23 13:15:00
8:35 AM,31.6,29.1,90,29.99,10.0,West,5.8,-,N/A,,Overcast,280,2013-10-23 13:35:00
8:55 AM,32.0,29.7,91,30.00,10.0,WNW,5.8,-,N/A,,Overcast,290,2013-10-23 13:55:00
9:15 AM,32.9,30.0,89,30.00,10.0,WNW,5.8,-,N/A,,Overcast,290,2013-10-23 14:15:00
9:35 AM,34.0,29.7,84,30.00,10.0,NW,4.6,-,N/A,,Overcast,310,2013-10-23 14:35:00
9:55 AM,36.3,29.7,77,30.00,10.0,WNW,5.8,-,N/A,,Overcast,300,2013-10-23 14:55:00
10:15 AM,37.2,29.8,75,30.00,10.0,NW,3.5,-,N/A,,Mostly Cloudy,310,2013-10-23 15:15:00
10:35 AM,39.4,28.6,65,30.00,10.0,WNW,9.2,-,N/A,,Overcast,290,2013-10-23 15:35:00
10:55 AM,39.2,25.5,58,30.00,10.0,NW,8.1,-,N/A,,Overcast,310,2013-10-23 15:55:00
11:15 AM,39.6,24.4,55,30.00,10.0,NW,9.2,-,N/A,,Overcast,320,2013-10-23 16:15:00
11:35 AM,40.8,23.9,51,29.99,10.0,NNW,9.2,-,N/A,,Overcast,340,2013-10-23 16:35:00
11:55 AM,42.6,22.6,45,29.99,10.0,NNW,9.2,-,N/A,,Overcast,330,2013-10-23 16:55:00
12:15 PM,42.8,24.8,49,29.99,10.0,WSW,9.2,-,N/A,,Overcast,250,2013-10-23 17:15:00
12:35 PM,43.0,24.3,48,29.99,10.0,West,6.9,-,N/A,,Overcast,280,2013-10-23 17:35:00
12:55 PM,42.8,23.9,47,29.98,10.0,WNW,8.1,-,N/A,,Overcast,290,2013-10-23 17:55:00
1:15 PM,42.6,23.0,46,29.98,10.0,WNW,6.9,17.3,N/A,,Overcast,290,2013-10-23 18:15:00
1:35 PM,41.9,24.8,51,29.97,10.0,NW,8.1,-,N/A,,Mostly Cloudy,310,2013-10-23 18:35:00
1:55 PM,41.4,25.0,52,29.97,10.0,West,11.5,-,N/A,,Overcast,270,2013-10-23 18:55:00
2:15 PM,41.2,27.5,58,29.97,10.0,West,10.4,-,N/A,,Overcast,280,2013-10-23 19:15:00
2:35 PM,41.5,26.2,55,29.97,10.0,WNW,11.5,-,N/A,,Overcast,290,2013-10-23 19:35:00
2:55 PM,41.5,26.4,55,29.97,10.0,WNW,9.2,-,N/A,,Overcast,290,2013-10-23 19:55:00
3:15 PM,37.8,28.6,69,29.97,5.0,WSW,6.9,11.5,N/A,,Overcast,250,2013-10-23 20:15:00
3:35 PM,40.3,26.8,59,29.97,10.0,West,5.8,-,N/A,,Overcast,260,2013-10-23 20:35:00
3:55 PM,41.0,25.3,54,29.98,10.0,WNW,11.5,17.3,N/A,,Overcast,290,2013-10-23 20:55:00
4:15 PM,41.0,24.6,52,29.98,10.0,West,10.4,-,N/A,,Overcast,280,2013-10-23 21:15:00
4:35 PM,40.6,24.6,53,29.98,10.0,West,12.7,16.1,N/A,,Overcast,280,2013-10-23 21:35:00
4:55 PM,38.8,26.8,62,29.98,10.0,NW,8.1,-,N/A,,Overcast,320,2013-10-23 21:55:00
5:15 PM,39.4,26.2,59,29.98,10.0,WNW,9.2,-,N/A,,Overcast,300,2013-10-23 22:15:00
5:35 PM,38.8,26.4,61,29.99,10.0,WNW,6.9,-,N/A,,Overcast,300,2013-10-23 22:35:00
5:55 PM,38.3,27.1,64,29.99,10.0,West,4.6,-,N/A,,Overcast,280,2013-10-23 22:55:00
6:15 PM,37.4,27.5,67,29.99,10.0,West,5.8,-,N/A,,Overcast,280,2013-10-23 23:15:00
6:35 PM,37.0,28.2,70,29.99,10.0,West,4.6,-,N/A,,Overcast,280,2013-10-23 23:35:00
6:55 PM,37.0,28.6,71,30.00,10.0,West,4.6,-,N/A,,Overcast,270,2013-10-23 23:55:00
7:15 PM,36.5,28.4,72,30.00,10.0,West,4.6,-,N/A,,Overcast,270,2013-10-24 00:15:00
7:35 PM,36.5,28.2,72,30.00,10.0,West,4.6,-,N/A,,Overcast,270,2013-10-24 00:35:00
7:55 PM,36.0,28.9,76,30.00,10.0,West,4.6,-,N/A,,Overcast,270,2013-10-24 00:55:00
8:15 PM,36.0,28.4,74,30.00,10.0,WNW,3.5,-,N/A,,Overcast,300,2013-10-24 01:15:00
8:35 PM,36.3,27.7,71,30.00,10.0,Calm,Calm,-,N/A,,Overcast,0,2013-10-24 01:35:00
8:55 PM,36.5,27.3,69,30.00,10.0,Calm,Calm,-,N/A,,Overcast,0,2013-10-24 01:55:00
9:15 PM,35.1,29.7,81,30.01,10.0,WNW,3.5,-,N/A,,Overcast,300,2013-10-24 02:15:00
9:35 PM,36.5,27.1,69,30.01,10.0,Calm,Calm,-,N/A,,Overcast,0,2013-10-24 02:35:00
9:55 PM,34.9,28.9,79,30.01,10.0,WNW,4.6,-,N/A,,Overcast,290,2013-10-24 02:55:00
10:15 PM,35.2,27.9,74,30.01,10.0,WNW,4.6,-,N/A,,Overcast,290,2013-10-24 03:15:00
10:35 PM,36.1,26.2,67,30.01,10.0,WNW,6.9,-,N/A,,Overcast,300,2013-10-24 03:35:00
10:55 PM,36.9,26.2,65,30.01,10.0,NW,6.9,-,N/A,,Overcast,320,2013-10-24 03:55:00
11:15 PM,36.9,26.1,65,30.02,10.0,NW,5.8,-,N/A,,Overcast,310,2013-10-24 04:15:00
11:35 PM,36.5,26.8,68,30.02,10.0,WNW,6.9,-,N/A,,Overcast,300,2013-10-24 04:35:00
11:55 PM,36.0,27.3,71,30.02,10.0,WNW,6.9,-,N/A,,Overcast,300,2013-10-24 04:55:00